• En España
  • Lista de países
  • Para 7 días
  • Temperatura del agua
  • Mapa Satelital
  • El tiempo en el mapa
  • Informadores
  • user-avatar
    Iniciar sesión

    Tiempo cada hora Lubango

    Hoy, 17 Agosto, Viernes

    Tiempo Temperatura Precipitaciones Viento Presión Humedad
    00:00 +15°C° 0 mm 1 mps 610 mmHg 50%
    01:00 +14°C° 0 mm 1 mps 610 mmHg 50%
    02:00 +14°C° 0 mm 1 mps 610 mmHg 50%
    03:00 +14°C° 0 mm 1 mps 610 mmHg 49%
    04:00 +14°C° 0 mm 1 mps 610 mmHg 49%
    05:00 +14°C° 0 mm 1 mps 610 mmHg 47%
    06:00 +14°C° 0 mm 1 mps 610 mmHg 45%
    07:00 +16°C° 0 mm 1 mps 611 mmHg 40%
    08:00 +19°C° 0 mm 2 mps 612 mmHg 32%
    09:00 +22°C° 0 mm 3 mps 613 mmHg 24%
    10:00 +27°C° 0 mm 3 mps 615 mmHg 16%
    11:00 +28°C° 0 mm 3 mps 614 mmHg 14%
    12:00 +29°C° 0 mm 3 mps 614 mmHg 12%
    13:00 +31°C° 0 mm 3 mps 614 mmHg 11%
    14:00 +30°C° 0 mm 3 mps 613 mmHg 11%
    15:00 +30°C° 0 mm 3 mps 613 mmHg 12%
    16:00 +30°C° 0 mm 3 mps 612 mmHg 13%
    17:00 +26°C° 0 mm 2 mps 611 mmHg 20%
    18:00 +23°C° 0 mm 2 mps 610 mmHg 27%
    19:00 +19°C° 0 mm 2 mps 609 mmHg 35%
    20:00 +19°C° 0 mm 1 mps 609 mmHg 38%
    21:00 +18°C° 0 mm 1 mps 609 mmHg 42%
    22:00 +16°C° 0 mm 1 mps 609 mmHg 45%
    23:00 +15°C° 0 mm 1 mps 609 mmHg 44%

    Mañana, 18 Agosto, Sábado

    Tiempo Temperatura Precipitaciones Viento Presión Humedad
    00:00 +15°C° 0 mm 1 mps 609 mmHg 42%
    01:00 +15°C° 0 mm 1 mps 608 mmHg 41%
    02:00 +15°C° 0 mm 1 mps 608 mmHg 39%
    03:00 +14°C° 0 mm 1 mps 608 mmHg 37%
    04:00 +14°C° 0 mm 1 mps 607 mmHg 35%
    05:00 +14°C° 0 mm 1 mps 608 mmHg 34%
    06:00 +14°C° 0 mm 1 mps 608 mmHg 32%
    07:00 +15°C° 0 mm 2 mps 609 mmHg 30%
    08:00 +19°C° 0 mm 2 mps 610 mmHg 24%
    09:00 +22°C° 0 mm 3 mps 612 mmHg 18%
    10:00 +27°C° 0 mm 4 mps 614 mmHg 12%
    11:00 +28°C° 0 mm 4 mps 614 mmHg 12%
    12:00 +30°C° 0 mm 3 mps 613 mmHg 11%
    13:00 +31°C° 0 mm 3 mps 613 mmHg 10%
    14:00 +30°C° 0 mm 3 mps 613 mmHg 12%
    15:00 +29°C° 0 mm 3 mps 612 mmHg 14%
    16:00 +29°C° 0 mm 3 mps 612 mmHg 17%
    17:00 +25°C° 0 mm 3 mps 611 mmHg 29%
    18:00 +20°C° 0 mm 2 mps 610 mmHg 41%
    19:00 +17°C° 0 mm 2 mps 609 mmHg 53%
    20:00 +16°C° 0 mm 1 mps 609 mmHg 58%
    21:00 +15°C° 0 mm 1 mps 609 mmHg 64%
    22:00 +13°C° 0 mm 0 mps 609 mmHg 69%
    23:00 +13°C° 0 mm 0 mps 609 mmHg 68%

    Pasado mañana, 19 Agosto, Domingo

    Tiempo Temperatura Precipitaciones Viento Presión Humedad
    00:00 +13°C° 0 mm 1 mps 609 mmHg 66%
    01:00 +13°C° 0 mm 1 mps 609 mmHg 65%
    02:00 +13°C° 0 mm 1 mps 608 mmHg 63%
    03:00 +13°C° 0 mm 1 mps 608 mmHg 61%
    04:00 +12°C° 0 mm 1 mps 608 mmHg 59%
    05:00 +13°C° 0 mm 1 mps 608 mmHg 55%
    06:00 +13°C° 0 mm 1 mps 608 mmHg 51%
    07:00 +13°C° 0 mm 1 mps 609 mmHg 47%
    08:00 +17°C° 0 mm 2 mps 610 mmHg 38%
    09:00 +21°C° 0 mm 3 mps 612 mmHg 28%
    10:00 +26°C° 0 mm 4 mps 614 mmHg 19%
    11:00 +27°C° 0 mm 3 mps 614 mmHg 17%
    12:00 +28°C° 0 mm 3 mps 614 mmHg 16%
    13:00 +30°C° 0 mm 3 mps 613 mmHg 14%
    14:00 +29°C° 0 mm 3 mps 613 mmHg 17%
    15:00 +28°C° 0 mm 3 mps 612 mmHg 20%
    16:00 +27°C° 0 mm 3 mps 611 mmHg 23%
    17:00 +22°C° 0 mm 3 mps 611 mmHg 37%
    18:00 +19°C° 0 mm 2 mps 610 mmHg 50%
    19:00 +16°C° 0 mm 2 mps 609 mmHg 64%
    20:00 +15°C° 0 mm 2 mps 610 mmHg 69%
    21:00 +14°C° 0 mm 1 mps 610 mmHg 74%
    22:00 +13°C° 0 mm 1 mps 610 mmHg 79%
    23:00 +13°C° 0 mm 1 mps 610 mmHg 80%

    20 Agosto, Lunes

    Tiempo Temperatura Precipitaciones Viento Presión Humedad
    00:00 +12°C° 0 mm 1 mps 610 mmHg 80%
    01:00 +12°C° 0 mm 1 mps 609 mmHg 80%
    02:00 +12°C° 0 mm 1 mps 609 mmHg 79%
    03:00 +10°C° 0 mm 0 mps 608 mmHg 77%
    04:00 +10°C° 0 mm 0 mps 608 mmHg 76%
    05:00 +12°C° 0 mm 1 mps 608 mmHg 69%
    06:00 +12°C° 0 mm 1 mps 609 mmHg 62%
    07:00 +13°C° 0 mm 1 mps 609 mmHg 56%
    08:00 +16°C° 0 mm 2 mps 611 mmHg 45%
    09:00 +20°C° 0 mm 2 mps 613 mmHg 33%
    10:00 +25°C° 0 mm 3 mps 614 mmHg 22%
    11:00 +26°C° 0 mm 3 mps 614 mmHg 20%
    12:00 +27°C° 0 mm 3 mps 614 mmHg 19%
    13:00 +28°C° 0 mm 3 mps 613 mmHg 17%
    14:00 +28°C° 0 mm 3 mps 613 mmHg 20%
    15:00 +27°C° 0 mm 3 mps 612 mmHg 23%
    16:00 +26°C° 0 mm 3 mps 611 mmHg 26%
    17:00 +22°C° 0 mm 3 mps 611 mmHg 38%
    18:00 +18°C° 0 mm 3 mps 610 mmHg 50%
    19:00 +15°C° 0 mm 2 mps 609 mmHg 63%
    20:00 +14°C° 0 mm 2 mps 609 mmHg 67%
    21:00 +13°C° 0 mm 1 mps 609 mmHg 71%
    22:00 +13°C° 0 mm 1 mps 610 mmHg 75%
    23:00 +12°C° 0 mm 1 mps 609 mmHg 76%

    21 Agosto, Martes

    Tiempo Temperatura Precipitaciones Viento Presión Humedad
    00:00 +12°C° 0 mm 1 mps 609 mmHg 76%
    01:00 +12°C° 0 mm 1 mps 609 mmHg 76%
    02:00 +11°C° 0 mm 1 mps 608 mmHg 76%
    03:00 +11°C° 0 mm 1 mps 608 mmHg 75%
    04:00 +10°C° 0 mm 0 mps 608 mmHg 75%
    05:00 +10°C° 0 mm 0 mps 608 mmHg 70%
    06:00 +11°C° 0 mm 0 mps 609 mmHg 66%
    07:00 +11°C° 0 mm 0 mps 609 mmHg 61%
    08:00 +16°C° 0 mm 1 mps 611 mmHg 50%
    09:00 +20°C° 0 mm 1 mps 612 mmHg 38%
    10:00 +24°C° 0 mm 1 mps 614 mmHg 26%
    11:00 +25°C° 0 mm 2 mps 614 mmHg 24%
    12:00 +27°C° 0 mm 2 mps 614 mmHg 21%
    13:00 +28°C° 0 mm 3 mps 613 mmHg 19%
    14:00 +27°C° 0 mm 3 mps 613 mmHg 20%
    15:00 +27°C° 0 mm 3 mps 612 mmHg 21%
    16:00 +26°C° 0 mm 4 mps 611 mmHg 23%
    17:00 +22°C° 0 mm 3 mps 611 mmHg 30%
    18:00 +19°C° 0 mm 2 mps 610 mmHg 38%
    19:00 +16°C° 0 mm 2 mps 609 mmHg 45%
    20:00 +15°C° 0 mm 1 mps 609 mmHg 49%
    21:00 +14°C° 0 mm 1 mps 609 mmHg 52%
    22:00 +13°C° 0 mm 1 mps 609 mmHg 56%
    23:00 +13°C° 0 mm 1 mps 609 mmHg 55%

    22 Agosto, Miércoles

    Tiempo Temperatura Precipitaciones Viento Presión Humedad
    00:00 +12°C° 0 mm 1 mps 608 mmHg 55%
    01:00 +12°C° 0 mm 1 mps 608 mmHg 54%
    02:00 +10°C° 0 mm 0 mps 608 mmHg 53%
    03:00 +10°C° 0 mm 0 mps 607 mmHg 52%
    04:00 +10°C° 0 mm 0 mps 607 mmHg 52%
    05:00 +11°C° 0 mm 1 mps 607 mmHg 49%
    06:00 +11°C° 0 mm 1 mps 608 mmHg 46%
    07:00 +12°C° 0 mm 1 mps 609 mmHg 43%
    08:00 +16°C° 0 mm 1 mps 610 mmHg 35%
    09:00 +20°C° 0 mm 1 mps 612 mmHg 27%
    10:00 +24°C° 0 mm 1 mps 614 mmHg 19%
    11:00 +26°C° 0 mm 2 mps 613 mmHg 17%
    12:00 +27°C° 0 mm 2 mps 613 mmHg 15%
    13:00 +28°C° 0 mm 3 mps 613 mmHg 12%
    14:00 +28°C° 0 mm 3 mps 613 mmHg 14%
    15:00 +27°C° 0 mm 3 mps 612 mmHg 15%
    16:00 +26°C° 0 mm 4 mps 611 mmHg 16%
    17:00 +22°C° 0 mm 3 mps 611 mmHg 24%
    18:00 +19°C° 0 mm 2 mps 610 mmHg 32%
    19:00 +16°C° 0 mm 2 mps 609 mmHg 40%
    20:00 +15°C° 0 mm 1 mps 609 mmHg 46%
    21:00 +13°C° 0 mm 1 mps 609 mmHg 52%
    22:00 +11°C° 0 mm 0 mps 609 mmHg 58%
    23:00 +11°C° 0 mm 0 mps 609 mmHg 60%
    Mostrar más